Погода в Стерлитамаке

Погода в Стерлитамаке : погода сейчас, прогноз погоды и архив. Всё, что Вы хотите узнать о погоде в Стерлитамаке!

Хотите узнать прогноз погоды в Стерлитамаке? Тогда Вам сюда: Погода в Стерлитамаке

Поиск расширенной информации на нашем сайте:

Другие новости

Новости СМИ2

Главная страница сайта

Новости сайта

02.10.2013

Напоминаем, что на нашем новом сайте вы можете получить высокодетализированные прогнозы погоды по пунктам России, СНГ и мира (включающие важные для авиации метеовеличины, такие как направление и скорость ветра, видимость, явления погоды, количество и форма облачности, нижняя и верхняя граница облачности), а также ознакомиться с разнообразными материалами по авиационной метеорологии и подборкой полезных ссылок на эту тему.

Сайт Метеоцентр.Азия посвящён разработке технологий оптимизации авиаметеорологического обслуживания, включая проектирование и перспективное создание нескольких автоматизированных авиаметеорологических систем:
- система выпуска высокодетальных прогностических карт явлений погоды для нижнего воздушного пространства по России и ближнему зарубежью;
- система верификации прогнозов TAF (выпускаемых синоптиками официальных АМСГ РФ и ближнего зарубежья) и AUTOTAF (выпускаемых сайтом Метеоцентр.Азия) - выявление ошибок, онлайн-сопоставление с фактической погодой METAR, автоматическое внесение коррективов в прогнозы при резком отклонении фактической погоды от прогноза, подсчёт оправдываемости прогнозов по элементам и в целом;
- система обработки, анализа и отображения авиаметеорологической информации для применения провайдерами метеорологической информации.

Рекомендуем: декоративный камень в интерьере

Погода в Стерлитамаке - сегодня

Время (UTC), дата Ветер
(°,м/с) 
Видим.   Явления Облачность Т
(°С)
Тd
(°С)
f(%) Тe
(°С)
Pmin
(гПа)
dP
(гПа)
Po
(мм)
O2
(г/м3)
Тmin Tmax R s Состояние
почвы
12 15.01.17 260 (З) 10 км    ясно 
-16.7 -20.8 70 -17  1038.6  0.2  765  330           
15 15.01.17 тихо ()   1000 м  мгла  ясно 
-20.7 -23.6 78 -21  1039.2  0.4  765  335    -14.9       
18 15.01.17 тихо ()   10 км    ясно 
-22.5 -25.8 74 -23  1039.3  0.1  765  338           
21 15.01.17 тихо ()   10 км    4/4 1000 м 
[Sc]
-22.4 -25.7 74 -22  1039.8  0.5  765  338           
00 16.01.17 тихо ()   4000 м  мгла  ясно 
-21.8 -25 75 -22  1040.1  0.3  766  337           
03 16.01.17 тихо ()   0200 м  мгла  ясно 
-21.5 -24.6 76 -22  1039.9  -0.2  766  337  -23.1      44  равномерный
сухой снег
100% 
06 16.01.17 тихо ()   1000 м  мгла  ясно 
-20.1 -23.3 76 -20  1040.5  0.7  766  335           
09 16.01.17 300 (СЗ) 4000 м  мгла  ясно 
-15.3 -19.1 73 -15  1039.7  -0.4  766  328           
12 16.01.17 тихо ()   4000 м  мгла  ясно 
-15.4 -19.3 72 -15    0.3  766  329           
15 16.01.17 тихо ()   4000 м  мгла  ясно 
-20 -22.9 78 -20  1040.4  766  335    -15       
18 16.01.17 тихо ()   10 км    ясно 
-22 -25.2 75 -22  1040.4  0.1  766  337           
21 16.01.17 тихо ()   10 км    9/9 1000 м 
[Sc]
-22.9 -26.3 74 -23  1040.6  0.1  766  339           
00 17.01.17 310 (СЗ) 0200 м  мгла  9/9 600 м 
[Sc]
-21.8 -24.8 77 -22  1041.1  0.6  766  337           
03 17.01.17 тихо ()   2000 м  мгла  ясно 
-23.3 -26.8 73 -23  1040.5  -0.7  766  339  -23.5      43  равномерный
сухой снег
100% 
06 17.01.17 тихо ()   2000 м  мгла  ясно 
-21.5 -24.7 75 -22  1040.1  -0.2  766  337  -23.5         
09 17.01.17 190 (Ю) 0200 м  мгла  ясно 
-17.4 -20.1 79 -18  1039  -0.8  765  331           
12 17.01.17 260 (З) 4000 м  мгла  ясно 
-16.9 -19.7 79 -17  1038.4  -0.6  765  330           
15 17.01.17 260 (З) 4000 м  мгла  ясно 
-20 -23.1 76 -20  1038.2  -0.4  764  334    -14.7       
18 17.01.17 тихо ()   0200 м  мгла  ясно 
-20.3 -23.4 76 -20  1037.2  -0.9  764  334           
21 17.01.17 200 (Ю) 0200 м  мгла  ясно 
-20.7 -23.8 76 -21  1036.2  -1  763  334           
00 18.01.17 тихо ()   0500 м  мгла  ясно 
-21.6 -24.8 75 -22  1036.2  763  336           
03 18.01.17 тихо ()   0500 м  мгла  ясно 
-21.4 -24.7 75 -21  1034.9  -1.3  762  335  -21.7      41  равномерный
сухой снег
100% 
06 18.01.17 тихо ()   1000 м    ясно 
-20.1 -23.3 76 -20  1034.2  -0.5  761  333           
09 18.01.17 190 (Ю) 4000 м  мгла  6/0 верхняя 
[Ci fib]
-17.2 -20 79 -17  1033.1  -0.8  761  329           
12 18.01.17 190 (Ю) 4000 м  мгла  9/0 верхняя 
[Ci fib]
-16.4 -19.1 80 -17  1032.5  -0.6  760  327           
Время (UTC), дата Ветер
(°,м/с) 
Видим.   Явления Облачность Т
(°С)
Тd
(°С)
f(%) Тe
(°С)
Pmin
(гПа)
dP
(гПа)
Po
(мм)
O2
(г/м3)
Тmin Tmax R s Состояние
почвы

Для получения пояснительной информации подведите курсор к названию столбца.

ПОГОДА в Стерлитамаке - архив

Всё, что Вы хотите узнать о погоде в Стерлитамаке - удобно и подробно!

Выберите нужную дату (начиная с 1 января 2015* года) и нажмите кнопку "Найти".
Будут отображены архивные сводки погоды по пункту Стерлитамак, начиная с указанной даты.


Отображать данные в формате CSV (для использования в таблицах Excel)


Внимание! Наш архив погоды предназначен исключительно для личного некоммерческого использования в познавательных целях. Если Вам необходимы официальные справки о состоянии погоды (для производственных, юридических, коммерческих и т.п. целей), обращайтесь в органы Росгидромета.

*Примечание: данная дата относится к архиву по метеостанциям СССР (Россия, СНГ, Балтия).
Архив по метеостанциям Зарубежной Европы и Азии (кроме Китая) хранится 10 дней, по другим регионам земного шара (Китай, Африка, Америка, Австралия, Океания) - 1 день.

Стерлитамак - район местоположения метеостанции


Название, широта, долгота, высота метеостанции:
Стерлитамак 53.6°ш. 56°д. 137 м над ур. моря [Российская Федерация]

Дополнительная информация

В oтличие oт бoльшинства пoгoдных сайтoв мы публикуем пoдрoбную метеoинфoрмацию в детальнoм прoфессиoнальнoм фoрмате.

Характеристики температуры и влажнoсти вoздуха измеряются на высoте 2 м в тени вдали oт зданий и деревьев.
Скoрoсть ветра измеряется на высoте 10 м (на урoвне рoста челoвека скoрoсть ветра ниже в 1.5-2 раза). Если метеoстанция нахoдится в гoрoде или в лесу, тo скoрoсть ветра занижена на 2-4 м/с пo сравнению с oткрытым местoм. Скoрoсть ветра над акватoриями крупных рек и oзёр, а также на вершинах хoлмoв на 2-5 м/с выше, чем в oбычных услoвиях.
Атмoсфернoе давление в разных тoчках местнoсти мoжет значительнo oтличаться oт давления на метеoстанции, в зависимoсти oт услoвий рельефа (при пoдъёме на 10 м давление пoнижается примернo на 1 мм рт.ст.).